Regional Weather Roundup
Issued by NWS

Home | Current Version | Previous Version | Text Only | Print | Product List | Glossary On
Versions: 1 2 3 4 5 6 7 8 9 10 11 12 13 14 15 16 17 18 19 20 21 22 23 24 25 26 27 28 29 30 31 32 33 34 35 36 37 38 39 40 41 42 43 44 45 46 47 48 49 50
000
ASUS43 KLMK 210310
RWRKY
KENTUCKY REGIONAL WEATHER ROUNDUP
NATIONAL WEATHER SERVICE LOUISVILLE KY
1100 PM EDT WED AUG 20 2014

NOTE "FAIR" INDICATES FEW OR NO CLOUDS BELOW 12,000 FEET
WITH NO SIGNIFICANT WEATHER AND/OR OBSTRUCTIONS TO VISIBILITY.

KYZ001>023-026-027-061>063-070>075-210400-
WESTERN AND SOUTH CENTRAL KENTUCKY

CITY           SKY/WX    TMP DP  RH WIND       PRES   REMARKS
PADUCAH        PTCLDY    81  75  82 SE9       30.02R
HENDERSON      MOCLDY    75  70  83 S6        30.02R
OWENSBORO      CLOUDY    74  66  75 S7        30.05R
HOPKINSVILLE   CLOUDY    73  73 100 S5        30.06R
BOWLING GREEN  MOCLDY    72  69  90 S7        30.09R
GLASGOW        CLOUDY    71  71 100 CALM      30.10R
$$

KYZ024-025-028>034-038-045-046-053-210400-
NORTH CENTRAL KENTUCKY

CITY           SKY/WX    TMP DP  RH WIND       PRES   REMARKS
LOUISVILLE/SDF CLOUDY    77  72  84 SE7       30.05R
LOUISVILLE/LOU CLOUDY    76  71  85 VRB3      30.05R
FORT KNOX      MOCLDY    73  72  96 S6        30.06R
$$

KYZ035>037-039>044-047>052-055>060-089>105-210400-
NORTHEAST KENTUCKY

CITY           SKY/WX    TMP DP  RH WIND       PRES   REMARKS
LEXINGTON      CLOUDY    72  67  84 S9        30.08S
COVINGTON      CLOUDY    71  68  90 SW6       30.05R
FRANKFORT      CLOUDY    72  69  90 S8        30.06R
$$

KYZ054-064>069-076>088-106>120-210400-
SOUTHEAST KENTUCKY

CITY           SKY/WX    TMP DP  RH WIND       PRES   REMARKS
JACKSON        CLOUDY    68  66  93 CALM      30.11S FOG
LONDON         CLOUDY    71  67  87 SW3       30.12R
SOMERSET       CLOUDY    68  68 100 CALM      30.12R
MIDDLESBORO    CLOUDY    68  68  99 CALM      30.14S
MONTICELLO     CLOUDY    71  69  93 S3        30.12R
$$



USA.gov is the U.S. government's official web portal to all federal, state and local government web resources and services.